Location: Asheville, NC
(35.6000°N, 82.5500°W)
Time: 19:17:01
(UTC-04:00)

JUGNU - Pass Details

Date: 04 January 2018
Orbit: 837 x 864 km, 20.0° (Epoch: 21 April)

Event Time Altitude Azimuth Distance (km) Brightness Sun altitude
Rises 17:54:16 0° 222° (SW) 3,415 ? -5.2°
Reaches altitude 10° 17:58:16 10° 197° (SSW) 2,481 ? -5.9°
Maximum altitude 18:01:00 13° 169° (S) 2,250 ? -6.4°
Drops below altitude 10° 18:03:45 10° 142° (SE) 2,483 ? -6.9°
Sets 18:07:46 0° 116° (ESE) 3,420 ? -7.7°
